Location: Buchberg
(46.9333°N, 15.8500°E)
Time: 19:49:12
(UTC+00:00)

Cosmos 1464 Rocket - Pass Details

Date: 14 July 2020
Orbit: 952 x 1002 km, 82.9° (Epoch: 05 August)

Event Time Altitude Azimuth Distance (km) Brightness Sun altitude
Exits shadow 01:59:22 - 179° (S) 3,438 6.4 -10.7°
Reaches altitude 10° 02:01:10 10° 177° (S) 2,767 6.0 -10.5°
Maximum altitude 02:07:30 72° 95° (E) 1,051 4.3 -9.8°
Drops below altitude 10° 02:13:50 10° 12° (NNE) 2,772 7.4 -9.0°
Sets 02:16:22 0° 11° (N) 3,719 8.1 -8.7°
